| time (UTC) | temp C | wind direction | speed KPH | gust KPH | rain 1hr cm | rain 24hr cm | rain mn cm | humidity % | barometer mb |
| 20260905205557 | 20 | 123 | 12.9 | 33.8 | 0.00 | 0.00 | 0.00 | 27 | 1020.9 |
| 20260905205101 | 20 | 110 | 11.3 | 29.0 | 0.00 | 0.00 | 0.00 | 28 | 1020.9 |
| 20260905204606 | 20 | 159 | 9.7 | 24.1 | 0.00 | 0.00 | 0.00 | 28 | 1020.8 |
| 20260905204057 | 20 | 150 | 12.9 | 37.0 | 0.00 | 0.00 | 0.00 | 29 | 1020.9 |
| 20260905203558 | 20 | 182 | 12.9 | 37.0 | 0.00 | 0.00 | 0.00 | 29 | 1021.0 |
| 20260905203101 | 19 | 38 | 16.1 | 37.0 | 0.00 | 0.00 | 0.00 | 28 | 1020.9 |
| 20260905202557 | 19 | 102 | 14.5 | 37.0 | 0.00 | 0.00 | 0.00 | 29 | 1021.0 |
| 20260905202057 | 19 | 122 | 12.9 | 29.0 | 0.00 | 0.00 | 0.00 | 29 | 1021.1 |
| 20260905201607 | 18 | 53 | 16.1 | 29.0 | 0.00 | 0.00 | 0.00 | 30 | 1020.9 |
| 20260905201057 | 19 | 158 | 12.9 | 29.0 | 0.00 | 0.00 | 0.00 | 28 | 1021.1 |
| 20260905200558 | 19 | 357 | 9.7 | 29.0 | 0.00 | 0.00 | 0.00 | 28 | 1021.1 |
| 20260905200117 | 19 | 334 | 11.3 | 29.0 | 0.00 | 0.00 | 0.00 | 29 | 1021.1 |
| 20260905195558 | 18 | 86 | 12.9 | 35.4 | 0.00 | 0.00 | 0.00 | 30 | 1021.1 |
| 20260905195057 | 18 | 1 | 14.5 | 35.4 | 0.00 | 0.00 | 0.00 | 30 | 1021.1 |
| 20260905194616 | 18 | 63 | 14.5 | 32.2 | 0.00 | 0.00 | 0.00 | 30 | 1021.1 |
| 20260905194057 | 18 | 118 | 12.9 | 32.2 | 0.00 | 0.00 | 0.00 | 32 | 1021.0 |
| 20260905193556 | 18 | 160 | 16.1 | 32.2 | 0.00 | 0.00 | 0.00 | 30 | 1021.1 |
| 20260905193103 | 18 | 49 | 11.3 | 24.1 | 0.00 | 0.00 | 0.00 | 30 | 1021.1 |
| 20260905192557 | 18 | 109 | 14.5 | 29.0 | 0.00 | 0.00 | 0.00 | 32 | 1021.1 |
| 20260905192121 | 18 | 117 | 14.5 | 32.2 | 0.00 | 0.00 | 0.00 | 32 | 1021.1 |
| 20260905191609 | 18 | 153 | 11.3 | 32.2 | 0.00 | 0.00 | 0.00 | 32 | 1021.3 |
| 20260905191058 | 18 | 94 | 11.3 | 32.2 | 0.00 | 0.00 | 0.00 | 32 | 1021.1 |
| 20260905190558 | 18 | 120 | 14.5 | 29.0 | 0.00 | 0.00 | 0.00 | 32 | 1021.1 |
| 20260905190112 | 18 | 50 | 9.7 | 22.5 | 0.00 | 0.00 | 0.00 | 31 | 1021.2 |
| 20260905185557 | 18 | 61 | 11.3 | 29.0 | 0.00 | 0.00 | 0.00 | 32 | 1021.3 |
| 20260905185057 | 17 | 77 | 12.9 | 29.0 | 0.00 | 0.00 | 0.00 | 31 | 1021.1 |
| 20260905184625 | 17 | 129 | 12.9 | 27.4 | 0.00 | 0.00 | 0.00 | 32 | 1021.3 |
| 20260905184057 | 17 | 68 | 9.7 | 25.7 | 0.00 | 0.00 | 0.00 | 33 | 1021.3 |
| 20260905183557 | 17 | 154 | 11.3 | 25.7 | 0.00 | 0.00 | 0.00 | 33 | 1021.5 |
| 20260905183108 | 17 | 84 | 9.7 | 27.4 | 0.00 | 0.00 | 0.00 | 35 | 1021.6 |
| 20260905182557 | 17 | 18 | 11.3 | 27.4 | 0.00 | 0.00 | 0.00 | 33 | 1021.5 |
| 20260905182058 | 17 | 94 | 12.9 | 30.6 | 0.00 | 0.00 | 0.00 | 33 | 1021.6 |
| 20260905181607 | 17 | 50 | 11.3 | 30.6 | 0.00 | 0.00 | 0.00 | 32 | 1021.5 |
| 20260905181058 | 17 | 302 | 11.3 | 24.1 | 0.00 | 0.00 | 0.00 | 32 | 1021.5 |
| 20260905180557 | 17 | 75 | 8.0 | 22.5 | 0.00 | 0.00 | 0.00 | 32 | 1021.5 |
| 20260905180105 | 17 | 80 | 8.0 | 22.5 | 0.00 | 0.00 | 0.00 | 33 | 1021.6 |
| 20260905175557 | 17 | 69 | 6.4 | 22.5 | 0.00 | 0.00 | 0.00 | 34 | 1021.5 |
| 20260905175057 | 17 | 70 | 4.8 | 22.5 | 0.00 | 0.00 | 0.00 | 34 | 1021.4 |
| 20260905174610 | 17 | 35 | 8.0 | 22.5 | 0.00 | 0.00 | 0.00 | 32 | 1021.5 |
| 20260905174057 | 17 | 25 | 9.7 | 22.5 | 0.00 | 0.00 | 0.00 | 34 | 1021.5 |
| 20260905173558 | 17 | 63 | 1.6 | 11.3 | 0.00 | 0.00 | 0.00 | 35 | 1021.6 |
| 20260905173116 | 18 | 49 | 0.0 | 8.0 | 0.00 | 0.00 | 0.00 | 39 | 1021.6 |
| 20260905172556 | 17 | 258 | 3.2 | 8.0 | 0.00 | 0.00 | 0.00 | 39 | 1021.6 |
| 20260905172100 | 17 | 126 | 1.6 | 6.4 | 0.00 | 0.00 | 0.00 | 38 | 1021.7 |
| 20260905171625 | 17 | 84 | 1.6 | 6.4 | 0.00 | 0.00 | 0.00 | 39 | 1021.7 |
| 20260905171057 | 16 | 11 | 1.6 | 6.4 | 0.00 | 0.00 | 0.00 | 41 | 1021.6 |
| 20260905170557 | 16 | 27 | 1.6 | 8.0 | 0.00 | 0.00 | 0.00 | 41 | 1021.7 |
| 20260905170109 | 15 | 19 | 3.2 | 9.7 | 0.00 | 0.00 | 0.00 | 42 | 1021.6 |
| 20260905165558 | 15 | 47 | 4.8 | 9.7 | 0.00 | 0.00 | 0.00 | 41 | 1021.7 |
| 20260905165058 | 16 | 321 | 3.2 | 6.4 | 0.00 | 0.00 | 0.00 | 44 | 1021.7 |
| 20260905164606 | 16 | 47 | 0.0 | 4.8 | 0.00 | 0.00 | 0.00 | 43 | 1021.9 |
| 20260905164058 | 16 | 307 | 0.0 | 4.8 | 0.00 | 0.00 | 0.00 | 43 | 1021.7 |
| 20260905163557 | 15 | 0 | 0.0 | 8.0 | 0.00 | 0.00 | 0.00 | 43 | 1021.7 |
| 20260905163114 | 15 | 0 | 0.0 | 8.0 | 0.00 | 0.00 | 0.00 | 49 | 1021.8 |
| 20260905162600 | 15 | 74 | 1.6 | 8.0 | 0.00 | 0.00 | 0.00 | 49 | 1021.8 |
| 20260905162058 | 14 | 0 | 0.0 | 4.8 | 0.00 | 0.00 | 0.00 | 54 | 1021.9 |
| 20260905161604 | 14 | 302 | 0.0 | 4.8 | 0.00 | 0.00 | 0.00 | 55 | 1022.0 |
| 20260905161057 | 13 | 318 | 0.0 | 3.2 | 0.00 | 0.00 | 0.00 | 56 | 1022.0 |
| 20260905160557 | 13 | 0 | 0.0 | 8.0 | 0.00 | 0.00 | 0.00 | 58 | 1021.8 |
| 20260905160105 | 12 | 0 | 3.2 | 8.0 | 0.00 | 0.00 | 0.00 | 63 | 1021.9 |
| 20260905155557 | 12 | 48 | 1.6 | 6.4 | 0.00 | 0.00 | 0.00 | 64 | 1021.8 |
| 20260905155056 | 12 | 0 | 0.0 | 4.8 | 0.00 | 0.00 | 0.00 | 66 | 1022.0 |
| 20260905154618 | 12 | 84 | 0.0 | 4.8 | 0.00 | 0.00 | 0.00 | 67 | 1021.8 |
| 20260905154057 | 12 | 0 | 0.0 | 3.2 | 0.00 | 0.00 | 0.00 | 69 | 1022.0 |
| 20260905153556 | 10 | 0 | 0.0 | 3.2 | 0.00 | 0.00 | 0.00 | 74 | 1021.7 |
| 20260905153114 | 10 | 91 | 1.6 | 3.2 | 0.00 | 0.00 | 0.00 | 74 | 1021.9 |
| 20260905152557 | 9 | 0 | 0.0 | 1.6 | 0.00 | 0.00 | 0.00 | 78 | 1022.0 |
| 20260905152101 | 8 | 99 | 1.6 | 1.6 | 0.00 | 0.00 | 0.00 | 79 | 1022.1 |
| 20260905151613 | 8 | 0 | 0.0 | 1.6 | 0.00 | 0.00 | 0.00 | 79 | 1022.0 |
| 20260905151057 | 8 | 70 | 0.0 | 1.6 | 0.00 | 0.00 | 0.00 | 79 | 1022.0 |
| 20260905150556 | 8 | 0 | 0.0 | 1.6 | 0.00 | 0.00 | 0.00 | 81 | 1021.9 |
| 20260905150105 | 8 | 0 | 0.0 | 1.6 | 0.00 | 0.00 | 0.00 | 83 | 1022.0 |
| 20260905145601 | 7 | 0 | 0.0 | 1.6 | 0.00 | 0.00 | 0.00 | 81 | 1022.0 |
| 20260905145057 | 7 | 0 | 0.0 | 0.0 | 0.00 | 0.00 | 0.00 | 83 | 1022.0 |
| 20260905144603 | 6 | 0 | 0.0 | 0.0 | 0.00 | 0.00 | 0.00 | 87 | 1022.0 |
| 20260905144057 | 5 | 0 | 0.0 | 0.0 | 0.00 | 0.00 | 0.00 | 88 | 1022.0 |
| 20260905143557 | 4 | 0 | 0.0 | 0.0 | 0.00 | 0.00 | 0.00 | 91 | 1021.9 |
| 20260905143105 | 3 | 0 | 0.0 | 1.6 | 0.00 | 0.00 | 0.00 | 89 | 1021.8 |
| 20260905142557 | 3 | 0 | 0.0 | 1.6 | 0.00 | 0.00 | 0.00 | 88 | 1021.9 |
| 20260905142100 | 3 | 0 | 0.0 | 1.6 | 0.00 | 0.00 | 0.00 | 87 | 1021.8 |
| 20260905141603 | 3 | 0 | 0.0 | 1.6 | 0.00 | 0.00 | 0.00 | 88 | 1021.9 |
| 20260905141056 | 3 | 0 | 0.0 | 0.0 | 0.00 | 0.00 | 0.00 | 89 | 1021.8 |
| 20260905140556 | 3 | 0 | 0.0 | 1.6 | 0.00 | 0.00 | 0.00 | 88 | 1021.6 |
| 20260905140105 | 2 | 0 | 0.0 | 1.6 | 0.00 | 0.00 | 0.00 | 86 | 1021.6 |
| 20260905135557 | 2 | 170 | 0.0 | 1.6 | 0.00 | 0.00 | 0.00 | 88 | 1021.7 |
| 20260905135056 | 2 | 0 | 0.0 | 1.6 | 0.00 | 0.00 | 0.00 | 88 | 1021.5 |
| 20260905134602 | 2 | 190 | 0.0 | 4.8 | 0.00 | 0.00 | 0.00 | 87 | 1021.5 |
| 20260905134101 | 2 | 0 | 0.0 | 4.8 | 0.00 | 0.00 | 0.00 | 88 | 1021.5 |
| 20260905133557 | 2 | 217 | 0.0 | 4.8 | 0.00 | 0.00 | 0.00 | 87 | 1021.5 |
| 20260905133105 | 2 | 0 | 0.0 | 0.0 | 0.00 | 0.00 | 0.00 | 87 | 1021.4 |
| 20260905132558 | 2 | 0 | 0.0 | 0.0 | 0.00 | 0.00 | 0.00 | 84 | 1021.4 |
| 20260905132057 | 3 | 0 | 0.0 | 0.0 | 0.00 | 0.00 | 0.00 | 86 | 1021.3 |
| 20260905131610 | 3 | 0 | 0.0 | 3.2 | 0.00 | 0.00 | 0.00 | 87 | 1021.3 |
| 20260905131119 | 3 | 0 | 0.0 | 3.2 | 0.00 | 0.00 | 0.00 | 86 | 1021.1 |
| 20260905130559 | 3 | 0 | 0.0 | 3.2 | 0.00 | 0.00 | 0.00 | 86 | 1021.4 |
| 20260905125558 | 3 | 0 | 0.0 | 1.6 | 0.00 | 0.00 | 0.00 | 84 | 1021.5 |
| 20260905125058 | 3 | 0 | 0.0 | 0.0 | 0.00 | 0.00 | 0.00 | 85 | 1021.4 |
| 20260905124605 | 3 | 0 | 0.0 | 3.2 | 0.00 | 0.00 | 0.00 | 85 | 1021.3 |
| 20260905124058 | 3 | 0 | 1.6 | 3.2 | 0.00 | 0.00 | 0.00 | 83 | 1021.0 |
| 20260905123558 | 3 | 0 | 0.0 | 0.0 | 0.00 | 0.00 | 0.00 | 85 | 1021.1 |
| 20260905123110 | 3 | 0 | 0.0 | 1.6 | 0.00 | 0.00 | 0.00 | 86 | 1020.9 |
| 20260905122558 | 3 | 0 | 0.0 | 1.6 | 0.00 | 0.00 | 0.00 | 83 | 1021.0 |
| 20260905122100 | 3 | 0 | 0.0 | 1.6 | 0.00 | 0.00 | 0.00 | 80 | 1021.0 |
| 20260905121605 | 3 | 243 | 0.0 | 1.6 | 0.00 | 0.00 | 0.00 | 82 | 1020.9 |
| 20260905121058 | 4 | 171 | 0.0 | 1.6 | 0.00 | 0.00 | 0.00 | 81 | 1020.9 |
| 20260905120602 | 4 | 0 | 0.0 | 1.6 | 0.00 | 0.00 | 0.00 | 80 | 1020.9 |
| 20260905120107 | 4 | 0 | 0.0 | 3.2 | 0.00 | 0.00 | 0.00 | 81 | 1021.0 |
| 20260905115558 | 4 | 216 | 0.0 | 3.2 | 0.00 | 0.00 | 0.00 | 81 | 1020.8 |
| 20260905115058 | 5 | 170 | 0.0 | 3.2 | 0.00 | 0.00 | 0.00 | 78 | 1021.0 |
| 20260905114602 | 5 | 0 | 0.0 | 4.8 | 0.00 | 0.00 | 0.00 | 79 | 1020.9 |
| 20260905114102 | 5 | 0 | 0.0 | 4.8 | 0.00 | 0.00 | 0.00 | 82 | 1021.0 |
| 20260905113558 | 5 | 170 | 0.0 | 4.8 | 0.00 | 0.00 | 0.00 | 80 | 1021.0 |
| 20260905113107 | 5 | 0 | 0.0 | 3.2 | 0.00 | 0.00 | 0.00 | 81 | 1020.9 |
| 20260905112558 | 5 | 169 | 0.0 | 4.8 | 0.00 | 0.00 | 0.00 | 82 | 1020.9 |
| 20260905112058 | 4 | 0 | 0.0 | 4.8 | 0.00 | 0.00 | 0.00 | 83 | 1020.9 |
| 20260905111646 | 4 | 158 | 0.0 | 4.8 | 0.00 | 0.00 | 0.00 | 82 | 1021.0 |
| 20260905111057 | 4 | 0 | 1.6 | 4.8 | 0.00 | 0.00 | 0.00 | 81 | 1020.9 |
| 20260905110558 | 4 | 0 | 0.0 | 3.2 | 0.00 | 0.00 | 0.00 | 80 | 1021.0 |
| 20260905105557 | 5 | 0 | 0.0 | 3.2 | 0.00 | 0.00 | 0.00 | 82 | 1021.0 |
| 20260905105059 | 5 | 0 | 0.0 | 4.8 | 0.00 | 0.00 | 0.00 | 82 | 1020.9 |
| 20260905104608 | 5 | 0 | 0.0 | 4.8 | 0.00 | 0.00 | 0.00 | 83 | 1021.1 |
| 20260905104058 | 5 | 0 | 1.6 | 4.8 | 0.00 | 0.00 | 0.00 | 81 | 1020.9 |
| 20260905103559 | 5 | 240 | 0.0 | 4.8 | 0.00 | 0.00 | 0.00 | 82 | 1021.0 |
| 20260905103104 | 5 | 188 | 0.0 | 3.2 | 0.00 | 0.00 | 0.00 | 82 | 1021.0 |
| 20260905102558 | 5 | 155 | 0.0 | 4.8 | 0.00 | 0.00 | 0.00 | 83 | 1021.0 |
| 20260905102058 | 5 | 0 | 0.0 | 4.8 | 0.00 | 0.00 | 0.00 | 80 | 1021.1 |
| 20260905101607 | 5 | 0 | 0.0 | 3.2 | 0.00 | 0.00 | 0.00 | 82 | 1021.1 |
| 20260905101058 | 5 | 0 | 0.0 | 3.2 | 0.00 | 0.00 | 0.00 | 82 | 1021.1 |
| 20260905100558 | 5 | 169 | 0.0 | 3.2 | 0.00 | 0.00 | 0.00 | 82 | 1021.2 |
| 20260905100114 | 5 | 0 | 1.6 | 3.2 | 0.00 | 0.00 | 0.00 | 81 | 1021.2 |
| 20260905095557 | 5 | 210 | 0.0 | 4.8 | 0.00 | 0.00 | 0.00 | 83 | 1021.3 |
| 20260905095058 | 5 | 0 | 1.6 | 4.8 | 0.00 | 0.00 | 0.00 | 80 | 1021.1 |
| 20260905094607 | 5 | 0 | 0.0 | 3.2 | 0.00 | 0.00 | 0.00 | 81 | 1021.3 |
| 20260905094100 | 5 | 0 | 0.0 | 3.2 | 0.00 | 0.00 | 0.00 | 79 | 1021.1 |
| 20260905093558 | 5 | 0 | 0.0 | 4.8 | 0.00 | 0.00 | 0.00 | 82 | 1021.1 |
| 20260905093107 | 5 | 185 | 1.6 | 4.8 | 0.00 | 0.00 | 0.00 | 81 | 1021.1 |
| 20260905092600 | 5 | 208 | 0.0 | 1.6 | 0.00 | 0.00 | 0.00 | 80 | 1021.1 |
| 20260905092102 | 5 | 0 | 0.0 | 1.6 | 0.00 | 0.00 | 0.00 | 83 | 1021.1 |
| 20260905091606 | 5 | 0 | 0.0 | 3.2 | 0.00 | 0.00 | 0.00 | 82 | 1021.3 |
| 20260905091057 | 5 | 0 | 0.0 | 3.2 | 0.00 | 0.00 | 0.00 | 82 | 1021.2 |
| 20260905090603 | 5 | 0 | 0.0 | 3.2 | 0.00 | 0.00 | 0.00 | 80 | 1021.3 |
| 20260905090105 | 5 | 0 | 0.0 | 3.2 | 0.00 | 0.00 | 0.00 | 79 | 1021.2 |
| 20260905085601 | 6 | 233 | 0.0 | 3.2 | 0.00 | 0.00 | 0.00 | 81 | 1021.3 |
| 20260905085057 | 6 | 0 | 1.6 | 3.2 | 0.00 | 0.00 | 0.00 | 81 | 1021.3 |
| 20260905084607 | 5 | 0 | 0.0 | 3.2 | 0.00 | 0.00 | 0.00 | 80 | 1021.2 |
| 20260905084058 | 5 | 0 | 0.0 | 1.6 | 0.00 | 0.00 | 0.00 | 80 | 1021.3 |
| 20260905083602 | 6 | 0 | 0.0 | 0.0 | 0.00 | 0.00 | 0.00 | 79 | 1021.3 |
| 20260905083106 | 6 | 0 | 0.0 | 3.2 | 0.00 | 0.00 | 0.00 | 80 | 1021.3 |
| 20260905082558 | 5 | 0 | 0.0 | 3.2 | 0.00 | 0.00 | 0.00 | 79 | 1021.3 |
| 20260905082058 | 6 | 0 | 0.0 | 3.2 | 0.00 | 0.00 | 0.00 | 79 | 1021.3 |
| 20260905081601 | 6 | 0 | 0.0 | 3.2 | 0.00 | 0.00 | 0.00 | 77 | 1021.3 |
| 20260905081058 | 6 | 181 | 0.0 | 1.6 | 0.00 | 0.00 | 0.00 | 80 | 1021.3 |
| 20260905080601 | 6 | 198 | 0.0 | 0.0 | 0.00 | 0.00 | 0.00 | 76 | 1021.4 |
| 20260905080129 | 6 | 0 | 0.0 | 1.6 | 0.00 | 0.00 | 0.00 | 78 | 1021.4 |
| 20260905075558 | 6 | 0 | 0.0 | 1.6 | 0.00 | 0.00 | 0.00 | 78 | 1021.3 |
| 20260905075057 | 6 | 170 | 0.0 | 1.6 | 0.00 | 0.00 | 0.00 | 77 | 1021.4 |
| 20260905074605 | 6 | 0 | 0.0 | 3.2 | 0.00 | 0.00 | 0.00 | 78 | 1021.4 |
| 20260905074059 | 6 | 0 | 0.0 | 3.2 | 0.00 | 0.00 | 0.00 | 77 | 1021.3 |
| 20260905073558 | 6 | 233 | 0.0 | 1.6 | 0.00 | 0.00 | 0.00 | 79 | 1021.3 |
| 20260905073104 | 6 | 0 | 0.0 | 0.0 | 0.00 | 0.00 | 0.00 | 79 | 1021.3 |
| 20260905072558 | 6 | 0 | 0.0 | 1.6 | 0.00 | 0.00 | 0.00 | 76 | 1021.3 |
| 20260905072101 | 6 | 0 | 0.0 | 1.6 | 0.00 | 0.00 | 0.00 | 78 | 1021.2 |
| 20260905071604 | 6 | 0 | 0.0 | 0.0 | 0.00 | 0.00 | 0.00 | 76 | 1021.3 |
| 20260905071102 | 7 | 0 | 0.0 | 0.0 | 0.00 | 0.00 | 0.00 | 75 | 1021.2 |
| 20260905070558 | 7 | 0 | 0.0 | 1.6 | 0.00 | 0.00 | 0.00 | 77 | 1021.2 |
| 20260905070110 | 7 | 0 | 0.0 | 6.4 | 0.00 | 0.00 | 0.00 | 76 | 1021.1 |
| 20260905065558 | 7 | 236 | 0.0 | 6.4 | 0.00 | 0.00 | 0.00 | 73 | 1021.1 |
| 20260905065058 | 7 | 226 | 1.6 | 4.8 | 0.00 | 0.00 | 0.00 | 76 | 1020.9 |
| 20260905064606 | 7 | 0 | 0.0 | 0.0 | 0.00 | 0.00 | 0.00 | 74 | 1021.1 |
| 20260905064059 | 8 | 0 | 0.0 | 0.0 | 0.00 | 0.00 | 0.00 | 74 | 1020.9 |
| 20260905063559 | 8 | 218 | 0.0 | 0.0 | 0.00 | 0.00 | 0.00 | 74 | 1020.9 |
| 20260905063128 | 8 | 0 | 0.0 | 0.0 | 0.00 | 0.00 | 0.00 | 75 | 1020.9 |
| 20260905062558 | 8 | 0 | 0.0 | 1.6 | 0.00 | 0.00 | 0.00 | 75 | 1020.8 |
| 20260905062058 | 8 | 0 | 0.0 | 4.8 | 0.00 | 0.00 | 0.00 | 74 | 1020.8 |
| 20260905061615 | 8 | 0 | 0.0 | 4.8 | 0.00 | 0.00 | 0.00 | 74 | 1020.8 |
| 20260905061100 | 8 | 126 | 3.2 | 4.8 | 0.00 | 0.00 | 0.00 | 73 | 1020.8 |
| 20260905060558 | 9 | 0 | 0.0 | 3.2 | 0.00 | 0.00 | 0.00 | 73 | 1020.8 |
| 20260905060108 | 8 | 114 | 1.6 | 3.2 | 0.00 | 0.00 | 0.00 | 74 | 1020.8 |
| 20260905055601 | 8 | 151 | 0.0 | 1.6 | 0.00 | 0.00 | 0.00 | 73 | 1020.7 |
| 20260905055100 | 8 | 0 | 0.0 | 1.6 | 0.00 | 0.00 | 0.00 | 73 | 1020.6 |
| 20260905054608 | 9 | 0 | 0.0 | 1.6 | 0.00 | 0.00 | 0.00 | 72 | 1020.5 |
| 20260905054058 | 9 | 231 | 0.0 | 4.8 | 0.00 | 0.00 | 0.00 | 71 | 1020.5 |
| 20260905053559 | 10 | 0 | 0.0 | 4.8 | 0.00 | 0.00 | 0.00 | 70 | 1020.5 |
| 20260905053111 | 10 | 71 | 1.6 | 4.8 | 0.00 | 0.00 | 0.00 | 71 | 1020.5 |
| 20260905052558 | 10 | 136 | 0.0 | 6.4 | 0.00 | 0.00 | 0.00 | 69 | 1020.5 |
| 20260905052101 | 10 | 107 | 3.2 | 6.4 | 0.00 | 0.00 | 0.00 | 69 | 1020.6 |
| 20260905051601 | 10 | 101 | 3.2 | 8.0 | 0.00 | 0.00 | 0.00 | 70 | 1020.4 |
| 20260905051058 | 10 | 85 | 4.8 | 8.0 | 0.00 | 0.00 | 0.00 | 71 | 1020.3 |
| 20260905050558 | 10 | 96 | 3.2 | 4.8 | 0.00 | 0.00 | 0.00 | 71 | 1020.4 |
| 20260905050111 | 10 | 148 | 0.0 | 1.6 | 0.00 | 0.00 | 0.00 | 69 | 1020.3 |
| 20260905045558 | 10 | 184 | 0.0 | 3.2 | 0.00 | 0.00 | 0.00 | 68 | 1020.4 |
| 20260905045058 | 10 | 89 | 0.0 | 4.8 | 0.00 | 0.00 | 0.00 | 68 | 1020.2 |
| 20260905044608 | 10 | 148 | 0.0 | 4.8 | 0.00 | 0.00 | 0.00 | 68 | 1020.2 |
| 20260905044058 | 10 | 113 | 1.6 | 4.8 | 0.00 | 0.00 | 0.00 | 67 | 1020.1 |
| 20260905043558 | 10 | 79 | 1.6 | 4.8 | 0.00 | 0.00 | 0.00 | 68 | 1020.1 |
| 20260905043102 | 10 | 130 | 1.6 | 9.7 | 0.00 | 0.00 | 0.00 | 68 | 1020.0 |
| 20260905042559 | 10 | 128 | 4.8 | 9.7 | 0.00 | 0.00 | 0.00 | 69 | 1019.9 |
| 20260905042058 | 10 | 134 | 1.6 | 4.8 | 0.00 | 0.00 | 0.00 | 67 | 1019.8 |
| 20260905041607 | 10 | 115 | 3.2 | 4.8 | 0.00 | 0.00 | 0.00 | 66 | 1020.0 |
| 20260905041059 | 10 | 170 | 0.0 | 4.8 | 0.00 | 0.00 | 0.00 | 65 | 1019.9 |
| 20260905040558 | 11 | 0 | 0.0 | 1.6 | 0.00 | 0.00 | 0.00 | 66 | 1019.8 |
| 20260905040110 | 11 | 0 | 0.0 | 6.4 | 0.00 | 0.00 | 0.00 | 65 | 1019.9 |
| 20260905035602 | 11 | 0 | 0.0 | 8.0 | 0.00 | 0.00 | 0.00 | 63 | 1019.8 |
| 20260905035058 | 11 | 0 | 3.2 | 8.0 | 0.00 | 0.00 | 0.00 | 64 | 1019.9 |
| 20260905034619 | 12 | 0 | 3.2 | 8.0 | 0.00 | 0.00 | 0.00 | 64 | 1019.7 |
| 20260905034059 | 12 | 76 | 1.6 | 8.0 | 0.00 | 0.00 | 0.00 | 62 | 1019.7 |
| 20260905033558 | 12 | 95 | 6.4 | 8.0 | 0.00 | 0.00 | 0.00 | 63 | 1019.7 |
| 20260905033119 | 12 | 99 | 4.8 | 6.4 | 0.00 | 0.00 | 0.00 | 62 | 1019.8 |
| 20260905032559 | 12 | 92 | 1.6 | 6.4 | 0.00 | 0.00 | 0.00 | 61 | 1019.7 |
| 20260905032058 | 12 | 0 | 0.0 | 4.8 | 0.00 | 0.00 | 0.00 | 62 | 1019.7 |
| 20260905031615 | 12 | 0 | 1.6 | 4.8 | 0.00 | 0.00 | 0.00 | 62 | 1019.7 |
| 20260905031058 | 13 | 150 | 0.0 | 12.9 | 0.00 | 0.00 | 0.00 | 60 | 1019.7 |
| 20260905030558 | 13 | 0 | 1.6 | 14.5 | 0.00 | 0.00 | 0.00 | 58 | 1019.4 |
| 20260905030106 | 13 | 68 | 6.4 | 14.5 | 0.00 | 0.00 | 0.00 | 57 | 1019.4 |
| 20260905025559 | 13 | 80 | 4.8 | 14.5 | 0.00 | 0.00 | 0.00 | 58 | 1019.2 |
| 20260905025102 | 14 | 77 | 4.8 | 12.9 | 0.00 | 0.00 | 0.00 | 55 | 1019.0 |
| 20260905024605 | 15 | 30 | 3.2 | 12.9 | 0.00 | 0.00 | 0.00 | 51 | 1018.9 |
| 20260905024058 | 16 | 51 | 6.4 | 12.9 | 0.00 | 0.00 | 0.00 | 47 | 1018.8 |
| 20260905023558 | 17 | 49 | 0.0 | 8.0 | 0.00 | 0.00 | 0.00 | 26 | 1018.5 |
| 20260905023127 | 17 | 295 | 1.6 | 19.3 | 0.00 | 0.00 | 0.00 | 25 | 1018.5 |
| 20260905022558 | 17 | 133 | 6.4 | 19.3 | 0.00 | 0.00 | 0.00 | 24 | 1018.5 |
| 20260905022059 | 17 | 241 | 1.6 | 8.0 | 0.00 | 0.00 | 0.00 | 26 | 1018.6 |
| 20260905021605 | 17 | 0 | 4.8 | 11.3 | 0.00 | 0.00 | 0.00 | 26 | 1018.7 |
| 20260905021058 | 18 | 128 | 3.2 | 11.3 | 0.00 | 0.00 | 0.00 | 24 | 1018.6 |
| 20260905020558 | 17 | 134 | 3.2 | 14.5 | 0.00 | 0.00 | 0.00 | 25 | 1018.6 |
| 20260905020106 | 18 | 238 | 4.8 | 16.1 | 0.00 | 0.00 | 0.00 | 24 | 1018.5 |
| 20260905015558 | 18 | 165 | 6.4 | 17.7 | 0.00 | 0.00 | 0.00 | 25 | 1018.6 |
| 20260905015058 | 18 | 109 | 6.4 | 17.7 | 0.00 | 0.00 | 0.00 | 24 | 1018.5 |
| 20260905014606 | 18 | 104 | 8.0 | 17.7 | 0.00 | 0.00 | 0.00 | 23 | 1018.5 |
| 20260905014101 | 18 | 127 | 4.8 | 20.9 | 0.00 | 0.00 | 0.00 | 24 | 1018.6 |
| 20260905013557 | 18 | 0 | 1.6 | 20.9 | 0.00 | 0.00 | 0.00 | 23 | 1018.6 |
| 20260905013103 | 19 | 265 | 8.0 | 20.9 | 0.00 | 0.00 | 0.00 | 23 | 1018.6 |
| 20260905012558 | 19 | 165 | 4.8 | 11.3 | 0.00 | 0.00 | 0.00 | 24 | 1018.5 |
| 20260905012101 | 19 | 115 | 4.8 | 11.3 | 0.00 | 0.00 | 0.00 | 23 | 1018.4 |
| 20260905011606 | 20 | 79 | 0.0 | 12.9 | 0.00 | 0.00 | 0.00 | 22 | 1018.4 |
| 20260905011101 | 20 | 268 | 1.6 | 12.9 | 0.00 | 0.00 | 0.00 | 23 | 1018.3 |
| 20260905010559 | 20 | 144 | 6.4 | 12.9 | 0.00 | 0.00 | 0.00 | 23 | 1018.4 |
| 20260905010112 | 21 | 169 | 0.0 | 8.0 | 0.00 | 0.00 | 0.00 | 23 | 1018.4 |
| 20260905005558 | 21 | 0 | 1.6 | 11.3 | 0.00 | 0.00 | 0.00 | 25 | 1018.4 |
| 20260905005101 | 21 | 158 | 1.6 | 12.9 | 0.00 | 0.00 | 0.00 | 24 | 1018.2 |
| 20260905004633 | 21 | 150 | 3.2 | 16.1 | 0.00 | 0.00 | 0.00 | 22 | 1018.2 |
| 20260905004058 | 21 | 153 | 6.4 | 16.1 | 0.00 | 0.00 | 0.00 | 22 | 1018.3 |
| 20260905003600 | 21 | 207 | 3.2 | 14.5 | 0.00 | 0.00 | 0.00 | 23 | 1018.4 |
| 20260905003124 | 21 | 238 | 3.2 | 14.5 | 0.00 | 0.00 | 0.00 | 24 | 1018.3 |
| 20260905002558 | 21 | 257 | 1.6 | 29.0 | 0.00 | 0.00 | 0.00 | 22 | 1018.3 |
| 20260905002058 | 21 | 340 | 6.4 | 29.0 | 0.00 | 0.00 | 0.00 | 23 | 1018.4 |
| 20260905001605 | 21 | 153 | 9.7 | 29.0 | 0.00 | 0.00 | 0.00 | 22 | 1018.3 |
| 20260905001102 | 21 | 226 | 4.8 | 22.5 | 0.00 | 0.00 | 0.00 | 22 | 1018.3 |
| 20260905000558 | 21 | 188 | 3.2 | 17.7 | 0.00 | 0.00 | 0.00 | 23 | 1018.2 |
| 20260905000144 | 21 | 101 | 8.0 | 17.7 | 0.00 | 0.00 | 0.00 | 23 | 1018.3 |
| 20260904235558 | 21 | 219 | 3.2 | 19.3 | 0.00 | 0.00 | 0.00 | 23 | 1018.2 |
| 20260904235057 | 21 | 280 | 6.4 | 19.3 | 0.00 | 0.00 | 0.00 | 23 | 1018.2 |
| 20260904234607 | 21 | 214 | 8.0 | 20.9 | 0.00 | 0.00 | 0.00 | 24 | 1018.3 |
| 20260904234057 | 21 | 226 | 3.2 | 20.9 | 0.00 | 0.00 | 0.00 | 24 | 1018.1 |
| 20260904233602 | 21 | 148 | 6.4 | 20.9 | 0.00 | 0.00 | 0.00 | 25 | 1018.2 |
| 20260904233105 | 21 | 287 | 3.2 | 20.9 | 0.00 | 0.00 | 0.00 | 22 | 1018.1 |
| 20260904232558 | 21 | 221 | 6.4 | 22.5 | 0.00 | 0.00 | 0.00 | 25 | 1018.2 |
| 20260904232101 | 21 | 333 | 8.0 | 24.1 | 0.00 | 0.00 | 0.00 | 24 | 1018.1 |
| 20260904231606 | 21 | 169 | 6.4 | 24.1 | 0.00 | 0.00 | 0.00 | 24 | 1018.1 |
| 20260904231058 | 22 | 82 | 6.4 | 24.1 | 0.00 | 0.00 | 0.00 | 23 | 1018.2 |
| 20260904230558 | 22 | 177 | 6.4 | 22.5 | 0.00 | 0.00 | 0.00 | 26 | 1018.1 |
| 20260904230117 | 21 | 245 | 6.4 | 22.5 | 0.00 | 0.00 | 0.00 | 26 | 1018.0 |
| 20260904225557 | 22 | 71 | 8.0 | 17.7 | 0.00 | 0.00 | 0.00 | 26 | 1018.1 |
| 20260904225101 | 22 | 271 | 4.8 | 20.9 | 0.00 | 0.00 | 0.00 | 26 | 1018.2 |
| 20260904224605 | 22 | 279 | 8.0 | 20.9 | 0.00 | 0.00 | 0.00 | 26 | 1018.1 |
| 20260904224102 | 22 | 139 | 8.0 | 19.3 | 0.00 | 0.00 | 0.00 | 27 | 1018.1 |
| 20260904223601 | 22 | 149 | 6.4 | 19.3 | 0.00 | 0.00 | 0.00 | 26 | 1018.1 |
| 20260904223107 | 22 | 151 | 6.4 | 20.9 | 0.00 | 0.00 | 0.00 | 26 | 1018.2 |
| 20260904222601 | 22 | 155 | 8.0 | 20.9 | 0.00 | 0.00 | 0.00 | 25 | 1018.1 |
| 20260904222057 | 22 | 200 | 3.2 | 25.7 | 0.00 | 0.00 | 0.00 | 25 | 1018.0 |
| 20260904221608 | 22 | 235 | 9.7 | 25.7 | 0.00 | 0.00 | 0.00 | 24 | 1018.0 |
| 20260904221059 | 22 | 286 | 6.4 | 20.9 | 0.00 | 0.00 | 0.00 | 25 | 1018.0 |
| 20260904220559 | 22 | 244 | 4.8 | 20.9 | 0.00 | 0.00 | 0.00 | 25 | 1017.9 |
| 20260904220109 | 22 | 210 | 4.8 | 19.3 | 0.00 | 0.00 | 0.00 | 24 | 1018.0 |
| 20260904215600 | 23 | 172 | 6.4 | 19.3 | 0.00 | 0.00 | 0.00 | 25 | 1018.2 |
| 20260904215058 | 22 | 256 | 4.8 | 16.1 | 0.00 | 0.00 | 0.00 | 25 | 1018.1 |
| 20260904214607 | 22 | 89 | 6.4 | 16.1 | 0.00 | 0.00 | 0.00 | 26 | 1018.0 |
| 20260904214058 | 23 | 207 | 4.8 | 16.1 | 0.00 | 0.00 | 0.00 | 25 | 1018.1 |
| 20260904213558 | 22 | 86 | 4.8 | 20.9 | 0.00 | 0.00 | 0.00 | 24 | 1017.9 |
| 20260904213108 | 22 | 172 | 4.8 | 20.9 | 0.00 | 0.00 | 0.00 | 26 | 1018.2 |
| 20260904212558 | 22 | 307 | 9.7 | 38.6 | 0.00 | 0.00 | 0.00 | 25 | 1018.0 |
| 20260904212058 | 22 | 186 | 16.1 | 38.6 | 0.00 | 0.00 | 0.00 | 26 | 1018.0 |
| 20260904211613 | 23 | 175 | 11.3 | 20.9 | 0.00 | 0.00 | 0.00 | 25 | 1017.9 |
| 20260904211057 | 22 | 205 | 1.6 | 8.0 | 0.00 | 0.00 | 0.00 | 26 | 1017.9 |
| 20260904210559 | 22 | 250 | 3.2 | 8.0 | 0.00 | 0.00 | 0.00 | 26 | 1017.8 |
| 20260904210107 | 23 | 80 | 1.6 | 9.7 | 0.00 | 0.00 | 0.00 | 25 | 1017.7 |